Location: Bauerbach
(50.4985°N, 10.3912°E)
Time: 17:23:29
(UTC+00:00)

Cosmos 2181 Rocket - Pass Details

Date: 13 January 2026
Orbit: 952 x 1013 km, 82.9° (Epoch: 16 February)

Event Time Altitude Azimuth Distance (km) Brightness Sun altitude
Rises 04:13:53 0° 351° (N) 3,708 7.0 -27.9°
Reaches altitude 10° 04:16:26 10° 355° (N) 2,764 6.3 -27.5°
Maximum altitude 04:22:45 64° 77° (ENE) 1,104 4.4 -26.5°
Drops below altitude 10° 04:29:06 10° 158° (SSE) 2,780 6.7 -25.5°
Sets 04:31:40 0° 162° (SSE) 3,731 7.3 -25.1°
